Overview Statistics Trail Chart Weather Telemetry Raw packets
 

This is the latest recevied weather packets stored in our database for station/object K7OWW-2. If no packets are shown the sender has not sent any weather packets the latest 10 day(s).

<< 19 20 21 22 23 24 25 >>
Time Temp. Humidity Pressure Rain* Wind** Luminosity Snow
1788233332 17.22° C 50% 1009.3 hPa 0 mm - - -
1788232732 17.78° C 49% 1009.1 hPa 0 mm - - -
1788232132 18.33° C 49% 1009 hPa 0 mm - - -
1788231532 18.33° C 47% 1008.8 hPa 0 mm - - -
1788230932 18.89° C 47% 1008.8 hPa 0 mm - - -
1788230332 19.44° C 45% 1008.6 hPa 0 mm - - -
1788229732 20° C 44% 1008.4 hPa 0 mm - - -
1788229135 20.56° C 42% 1008.3 hPa 0 mm - - -
1788228535 21.11° C 41% 1008.2 hPa 0 mm - - -
1788227932 21.67° C 39% 1008.1 hPa 0 mm - - -
1788227332 22.22° C 37% 1008.1 hPa 0 mm - - -
1788226732 22.22° C 36% 1008.2 hPa 0 mm - - -
1788226132 23.33° C 35% 1008.2 hPa 0 mm - - -
1788225532 23.89° C 33% 1008.3 hPa 0 mm - - -
1788224934 24.44° C 31% 1008.2 hPa 0 mm - - -
1788224332 25° C 31% 1008.2 hPa 0 mm - - -
1788223732 25.56° C 30% 1008.1 hPa 0 mm - - -
1788223139 26.11° C 28% 1008.1 hPa 0 mm - - -
1788222532 26.67° C 26% 1008.3 hPa 0 mm - - -
1788221932 26.11° C 20% 1008.3 hPa 0 mm - - -
1788221332 25.56° C 20% 1008.2 hPa 0 mm - - -
1788220732 26.67° C 20% 1008.2 hPa 0 mm - - -
1788219532 27.22° C 19% 1008.3 hPa 0 mm - - -
1788218932 27.22° C 19% 1008.4 hPa 0 mm - - -
1788218332 27.22° C 18% 1008.4 hPa 0 mm - - -

* Rain latest hour (hover to see other rain measurements)
** Current wind speed in m/s (hover to see current wind gust speed)